Date,TemperatureHighF,TemperatureAvgF,TemperatureLowF,DewpointHighF,DewpointAvgF,DewpointLowF,HumidityHigh,HumidityAvg,HumidityLow,PressureMaxIn,PressureMinIn,WindSpeedMaxMPH,WindSpeedAvgMPH,GustSpeedMaxMPH,PrecipitationSumIn
2013-10-1,51,46,42,50,45,41,97,96,95,30.19,30.14,0,0,0,0.19
2013-10-2,54,46,38,49,44,37,99,92,79,30.18,30.08,2,0,5,0.25
2013-10-3,56,47,39,48,43,38,99,89,70,30.36,30.18,2,0,4,0.11
2013-10-4,60,46,39,50,43,38,99,89,65,30.39,30.30,1,0,4,0.01
2013-10-5,66,48,37,53,45,36,99,89,57,30.29,30.13,1,0,4,0.00
2013-10-6,76,54,41,55,44,34,98,77,22,30.13,29.97,4,0,10,0.00
2013-10-7,56,50,45,52,47,43,97,89,78,30.16,30.01,2,0,7,0.14
2013-10-8,52,48,44,49,46,43,98,95,84,30.17,29.98,3,0,5,0.26
2013-10-9,52,46,42,48,44,41,98,94,83,30.01,29.95,1,0,4,0.04
2013-10-10,58,47,40,49,44,39,99,91,61,30.07,29.93,1,0,3,0.00
2013-10-11,55,48,43,48,45,42,96,90,75,30.11,30.06,0,0,3,0.00
2013-10-12,56,48,42,47,43,-100,97,86,67,30.11,30.03,1,0,4,0.00
2013-10-13,54,45,40,47,42,39,97,91,76,30.24,30.11,1,0,5,0.00
2013-10-14,57,45,38,49,42,37,98,91,69,30.29,30.21,1,0,4,0.00
2013-10-15,60,45,37,46,41,36,99,89,58,30.23,30.10,0,0,3,0.00
2013-10-16,63,48,36,51,43,35,98,85,59,30.12,30.07,1,0,3,0.00
2013-10-17,60,45,38,49,43,37,99,92,68,30.17,30.10,0,0,3,0.00
2013-10-18,62,49,40,51,45,39,99,89,65,30.13,30.05,0,0,3,0.00
2013-10-19,65,50,41,54,47,40,99,91,63,30.11,30.06,0,0,2,0.01
2013-10-20,63,50,41,53,46,40,99,90,65,30.11,30.03,1,0,4,0.01
2013-10-21,64,48,40,54,46,39,99,94,68,30.04,29.94,0,0,3,0.01
2013-10-22,69,52,42,56,48,41,99,90,60,30.01,29.94,0,0,3,0.01
2013-10-23,68,52,43,57,49,42,98,91,67,29.98,29.92,0,0,3,0.00
2013-10-24,64,52,44,56,49,43,99,92,74,30.03,29.96,1,0,2,0.00
2013-10-25,50,48,47,50,48,46,99,98,98,30.22,30.14,0,0,2,0.01
2013-10-26,49,46,44,48,43,-100,99,96,93,30.24,30.14,0,0,3,0.01
2013-10-27,50,46,45,48,45,44,98,96,92,30.14,29.78,5,1,9,0.15
2013-10-28,54,44,36,46,39,-100,98,87,54,29.85,29.73,1,0,4,0.01
2013-10-29,53,39,30,41,36,29,98,89,60,30.03,29.84,0,0,3,0.00
2013-10-30,56,43,33,47,40,32,98,90,67,30.17,30.05,1,0,4,0.00
2013-10-31,57,50,43,52,48,42,97,93,78,30.23,30.17,0,0,3,0.00